Temp_Advection
nan nan nan nan nan nan nan nan nan nan nan nan nan nan nan nan nan nan nan nan nan nan nan nan nan nan nan nan nan nan nan nan nan
nan -0 -0 0 0 -0 0 0 -0 -0 -0 -0 -0 -0 -0 -0 -0 -0 -0 0 0 0 0 0 0 -0 0 -0 0 -0 -0 -0 nan
nan -0 -0 0 0 -0 -0 0 0 -0 -0 -0 -0 -0 0 -0 -0 -0 0 0 0 -0 0 0 0 0 0 0 0 0 -0 -0 nan
nan 0 0 -0 0 -0 -0 -0 0 0 -0 -0 -0 0 -0 -0 -0 -0 -0 -0 -0 -0 -0 -0 -0 0 0 0 0 0 0 0 nan
nan -0 -0 -0 0 -0 -0 -0 -0 -0 -0 -0 0 0 0 0 -0 -0 0 -0 -0 -0 -0 -0 -0 -0 0 0 0 0 0 0 nan
nan -0 0 -0 -0 0 0 0 0 0 0 0 0 0 0 0 0 0 0 0 -0 -0 -0 -0 -0 -0 -0 -0 0 0 0 0 nan
nan 0 -0 -0 -0 0 0 0 0 0 -0 0 0 0 0 0 0 0 0 0 -0 -0 -0 -0 -0 -0 -0 -0 -0 -0 0 0 nan
nan 0 0 0 0 0 0 0 0 0 -0 0 0 0 0 0 -0 0 0 0 -0 -0 -0 -0 -0 -0 -0 -0 -0 -0 -0 0 nan
nan 0 0 0 0 0 0 0 0 0 0 0 0 0 0 0 0 0 0 0 0 -0 -0 -0 -0 -0 -0 -0 -0 -0 0 0 nan
nan 0 0 0 0 0 0 -0 0 0 0 0 0 0 0 0 0 0 0 0 0 0 -0 -0 -0 -0 -0 -0 0 -0 -0 0 nan
nan 0 0 0 0 0 -0 -0 -0 -0 0 0 0 0 0 0 0 0 0 -0 -0 0 0 0 -0 -0 -0 -0 -0 0 0 -0 nan
nan 0 0 0 0 0 0 -0 -0 -0 -0 -0 0 0 0 0 0 0 0 0 -0 -0 0 0 0 0 -0 -0 -1 -0 0 0 nan
nan 0 0 0 0 0 -0 0 -0 -0 -0 -0 0 0 0 -0 -0 0 0 0 0 -0 -0 0 0 0 0 0 -0 -1 -0 0 nan
nan -0 0 0 0 0 0 0 -0 -0 -0 0 0 0 0 0 -0 -0 0 0 0 0 -0 -0 0 0 0 0 1 1 -1 -1 nan
nan 0 0 0 0 0 0 0 0 0 0 0 -0 0 0 0 -0 0 0 0 0 0 0 0 0 0 0 0 1 1 0 -0 nan
nan 0 0 0 -0 0 0 0 -0 0 1 0 -0 -0 0 -0 -0 -0 -0 -0 0 0 1 1 0 0 0 0 0 1 1 0 nan
nan 0 0 0 0 0 0 0 0 -0 1 1 0 -0 -0 -0 -0 -0 -0 -0 -0 0 0 1 1 1 0 0 0 0 1 1 nan
nan -0 -0 0 0 0 0 0 0 -0 0 1 0 -0 -0 -0 -0 -0 0 -0 -0 -0 -0 0 1 1 0 1 0 0 0 1 nan
nan 0 0 0 0 0 0 0 0 0 -0 0 0 0 0 0 -0 -0 -0 -0 -0 -0 -0 -0 -0 -0 -0 0 1 1 1 1 nan
nan nan nan nan nan nan nan nan nan nan nan nan nan nan nan nan nan nan nan nan nan nan nan nan nan nan nan nan nan nan nan nan nan
Wind_Speed
9 7 6 7 8 9 9 9 8 7 7 7 6 7 8 8 9 9 11 8 6 5 5 3 6 8 10 10 12 9 7 5 3
8 6 6 6 7 8 8 8 8 7 6 6 6 7 7 7 6 5 3 4 6 7 6 6 3 4 4 5 6 9 9 7 6
9 8 7 6 6 7 6 6 6 5 4 3 3 3 4 5 5 5 5 5 8 8 8 8 7 3 3 3 1 2 5 6 7
10 9 7 5 5 6 6 5 4 4 4 2 1 0 2 3 4 4 6 7 8 9 9 9 9 7 6 6 7 6 4 2 2
2 4 3 1 0 1 2 3 4 3 5 5 4 3 3 4 4 5 7 9 12 12 11 11 10 8 7 7 7 9 10 6 8
6 6 6 4 3 3 4 3 3 4 6 7 7 6 5 5 6 7 8 9 11 13 12 12 12 10 8 6 6 6 7 7 10
7 8 8 7 6 5 5 6 6 5 6 9 9 9 8 8 9 9 10 10 11 14 14 13 13 12 10 8 6 6 5 5 6
8 8 8 8 7 7 7 7 7 8 8 9 11 12 12 12 11 11 11 11 12 13 15 15 14 13 11 10 8 7 5 5 4
8 8 7 7 7 7 8 9 10 10 11 12 13 14 14 15 14 14 13 13 14 14 16 16 16 15 13 11 10 8 6 5 5
9 8 7 7 8 8 8 9 11 12 13 14 14 15 16 17 17 17 16 16 16 16 16 17 16 16 15 14 11 10 9 8 7
8 8 9 9 9 8 8 9 10 12 14 14 15 15 17 18 19 18 18 18 18 18 18 18 18 17 16 16 14 12 11 10 10
9 10 10 9 10 11 11 11 13 14 15 17 16 17 16 18 19 19 19 19 19 20 19 20 20 19 19 18 17 14 14 13 12
13 13 12 11 12 14 15 15 17 18 18 20 20 20 20 20 20 21 22 21 20 21 21 21 22 22 21 20 18 18 15 15 15
17 17 16 14 15 17 18 20 21 23 23 23 24 24 25 25 24 24 25 25 24 24 24 24 23 24 23 22 19 16 18 17 17
21 22 22 22 21 22 23 25 25 26 28 29 30 29 29 29 29 29 29 29 29 29 28 27 26 25 25 24 22 19 20 23 20
24 24 25 26 27 26 25 25 27 28 28 31 34 34 33 32 30 28 29 31 32 31 31 31 29 27 26 27 25 24 20 23 26
28 29 29 29 29 28 27 28 29 29 29 30 32 32 28 31 25 22 20 18 22 25 28 32 32 30 28 28 29 28 26 23 26
30 30 31 30 31 30 30 30 28 27 25 26 26 19 18 24 26 25 24 23 24 25 27 28 30 30 28 30 31 31 30 27 24
26 27 27 28 29 29 28 27 26 23 22 22 23 24 26 26 20 17 22 23 24 26 27 25 24 22 24 26 30 31 32 31 30
29 29 30 29 29 28 27 27 26 24 22 21 20 20 21 22 24 25 22 22 22 21 21 23 23 22 27 28 31 33 34 36 36
Wind_Direction
131 126 96 70 73 83 89 102 117 116 106 95 82 80 86 93 93 82 78 74 82 75 63 54 47 51 60 58 39 54 57 52 58
146 139 122 92 83 90 88 94 103 105 97 87 83 82 81 80 86 73 48 7 347 7 350 346 1 83 87 75 41 53 49 44 91
160 156 145 120 102 108 105 105 110 114 112 89 82 85 72 59 53 38 12 359 355 359 357 355 347 324 259 242 261 73 69 64 84
169 171 166 149 130 138 137 139 153 161 167 182 181 329 356 7 11 7 0 359 6 3 360 358 349 333 304 278 262 252 220 182 118
194 194 185 191 114 155 180 183 191 210 211 222 231 256 288 302 327 332 344 348 350 353 355 354 353 345 329 307 286 267 257 217 208
208 217 220 220 221 219 218 230 250 272 281 274 265 270 281 289 312 319 329 336 338 343 352 349 349 346 339 326 311 290 274 247 234
229 233 238 239 236 238 237 236 247 263 275 288 286 283 284 293 305 311 315 325 328 333 340 344 341 340 335 329 320 306 293 283 261
247 250 258 250 253 261 264 259 262 268 277 280 283 281 281 285 297 303 306 310 315 321 328 335 335 333 330 326 319 311 305 293 276
257 254 255 252 258 269 274 274 274 276 278 280 281 283 284 284 291 296 299 304 305 310 317 324 330 327 323 316 310 304 295 283 273
253 250 253 259 270 279 281 280 279 281 281 280 280 281 282 284 288 294 295 301 300 301 305 312 319 322 320 312 301 292 283 276 266
260 260 264 263 274 281 286 286 287 287 283 285 282 285 281 282 284 292 296 297 297 298 297 301 306 313 313 309 300 289 275 268 262
263 267 272 279 280 279 285 291 290 291 292 292 290 288 288 286 287 290 294 296 295 294 293 294 297 301 304 306 301 291 275 266 259
272 276 278 285 283 284 284 288 289 291 292 293 293 291 289 289 290 291 290 292 295 295 292 288 289 291 295 297 293 290 280 264 260
274 280 283 284 282 281 285 288 288 290 292 294 294 291 287 286 286 286 288 290 290 291 291 289 286 284 285 288 287 263 274 273 258
271 274 276 278 279 280 283 287 288 286 286 287 287 287 288 287 286 286 286 286 288 289 288 285 284 280 281 281 281 275 258 274 275
270 272 275 276 277 282 284 283 284 285 286 286 286 289 289 288 288 289 288 286 288 289 289 289 284 281 276 276 276 275 263 260 268
268 269 272 274 276 277 278 279 283 285 284 282 286 290 291 296 298 302 305 303 297 290 288 285 282 281 277 274 276 275 270 252 257
268 268 271 272 274 273 273 276 278 284 283 278 280 284 284 293 292 290 288 289 290 291 288 291 287 283 280 274 272 272 270 264 249
270 270 269 270 271 271 271 271 276 276 280 278 276 281 283 290 294 285 294 293 293 294 287 292 294 291 284 283 276 267 263 257 256
269 271 272 272 271 272 270 268 268 270 271 276 280 281 282 285 282 292 298 301 297 294 291 296 297 298 291 284 281 270 260 258 252
Height
1566 1567 1568 1569 1569 1569 1569 1570 1570 1571 1572 1573 1573 1573 1574 1574 1574 1574 1575 1575 1575 1574 1574 1574 1574 1573 1572 1572 1571 1570 1570 1570 1570
1567 1568 1569 1570 1571 1571 1571 1571 1572 1572 1573 1574 1574 1575 1575 1575 1575 1575 1576 1576 1575 1575 1574 1574 1573 1573 1574 1573 1573 1572 1572 1571 1571
1568 1569 1570 1571 1571 1572 1573 1573 1573 1574 1574 1574 1575 1576 1577 1577 1577 1577 1577 1576 1575 1575 1574 1574 1573 1573 1573 1574 1574 1574 1574 1573 1573
1568 1569 1570 1571 1572 1572 1573 1574 1574 1574 1575 1575 1576 1577 1578 1578 1578 1578 1578 1577 1576 1576 1575 1574 1573 1573 1572 1572 1573 1573 1573 1574 1574
1570 1571 1572 1573 1573 1574 1575 1575 1575 1575 1575 1576 1576 1577 1578 1578 1578 1578 1578 1578 1577 1576 1575 1574 1573 1572 1572 1572 1571 1571 1571 1571 1573
1569 1570 1571 1572 1573 1574 1575 1576 1576 1576 1576 1576 1577 1577 1578 1578 1578 1578 1578 1577 1577 1576 1575 1574 1573 1572 1571 1570 1570 1569 1569 1569 1569
1569 1570 1571 1572 1573 1574 1575 1576 1576 1576 1576 1576 1577 1577 1578 1578 1578 1577 1577 1577 1576 1575 1574 1574 1573 1572 1571 1570 1569 1569 1569 1569 1569
1568 1569 1570 1572 1573 1573 1574 1575 1575 1576 1576 1576 1576 1576 1577 1577 1578 1577 1577 1576 1576 1575 1574 1573 1572 1572 1571 1570 1570 1569 1568 1568 1568
1568 1569 1570 1570 1571 1572 1573 1573 1574 1575 1575 1575 1575 1575 1575 1576 1576 1576 1576 1575 1575 1574 1573 1572 1572 1571 1570 1570 1569 1568 1568 1568 1568
1566 1568 1568 1569 1570 1571 1571 1571 1572 1573 1573 1573 1573 1573 1573 1573 1574 1574 1574 1574 1573 1572 1572 1571 1570 1570 1569 1568 1567 1567 1567 1566 1566
1565 1566 1567 1568 1569 1569 1569 1570 1570 1570 1570 1570 1570 1571 1571 1571 1571 1570 1571 1571 1571 1570 1569 1569 1568 1567 1567 1566 1565 1564 1564 1565 1565
1564 1564 1565 1566 1567 1567 1567 1567 1567 1567 1567 1567 1568 1568 1569 1568 1568 1568 1567 1567 1567 1567 1567 1566 1566 1565 1565 1564 1563 1563 1563 1562 1562
1562 1562 1563 1565 1565 1565 1565 1565 1565 1564 1564 1565 1565 1565 1565 1565 1565 1564 1564 1563 1563 1563 1563 1563 1563 1562 1562 1562 1561 1560 1560 1560 1560
1558 1559 1560 1561 1562 1561 1561 1561 1561 1561 1561 1561 1560 1560 1560 1560 1560 1560 1559 1559 1558 1558 1559 1559 1559 1559 1559 1559 1559 1559 1558 1557 1557
1555 1555 1556 1557 1557 1557 1557 1557 1557 1556 1556 1555 1554 1554 1554 1554 1554 1554 1554 1553 1553 1553 1553 1554 1554 1555 1555 1555 1555 1556 1556 1554 1554
1550 1551 1551 1551 1551 1552 1552 1552 1551 1551 1551 1549 1547 1546 1546 1546 1547 1547 1547 1546 1546 1547 1547 1547 1548 1549 1550 1551 1551 1551 1552 1551 1549
1545 1546 1546 1546 1546 1546 1546 1546 1545 1545 1545 1544 1542 1539 1539 1539 1540 1541 1541 1541 1541 1541 1541 1541 1542 1543 1544 1544 1545 1546 1547 1548 1547
1540 1540 1540 1540 1539 1539 1540 1540 1540 1538 1539 1539 1539 1535 1533 1533 1535 1535 1536 1536 1535 1535 1534 1535 1536 1536 1537 1538 1538 1539 1541 1542 1545
1533 1533 1534 1534 1533 1533 1534 1535 1534 1533 1532 1533 1534 1533 1531 1530 1527 1528 1530 1531 1531 1530 1530 1529 1529 1529 1529 1529 1529 1531 1533 1535 1536
1527 1527 1527 1527 1527 1527 1527 1528 1528 1528 1528 1528 1528 1528 1527 1526 1524 1521 1522 1524 1524 1523 1523 1522 1522 1521 1522 1522 1522 1522 1523 1524 1524